SP6DW-13 Weather Reports


Display with metric or nautical units.
time (UTC)temp
F
wind
direction
speed
MPH
gust
MPH
rain 1hr
in
rain 24hr
in
rain mn
in
humidity
%
barometer
mb
20260507192016 47 67 1.0 6.0 0.00 0.65 0.65 97 1017.2
20260507191103 47 72 1.0 4.0 0.00 0.65 0.65 97 1017.0
20260507190016 47 72 1.0 3.0 0.00 0.65 0.65 97 1016.9
20260507185016 47 80 1.0 7.0 0.00 0.65 0.65 97 1016.8
20260507184016 47 69 1.0 3.0 0.00 0.65 0.65 96 1016.6
20260507183037 47 78 1.0 3.0 0.00 0.65 0.65 96 1016.5
20260507182038 47 75 1.0 3.0 0.00 0.65 0.65 96 1016.5
20260507181016 48 84 1.0 2.0 0.00 0.65 0.65 96 1016.3
20260507180015 48 70 0.0 3.0 0.00 0.65 0.65 96 1016.3
20260507175016 48 72 1.0 3.0 0.00 0.65 0.65 96 1016.1
20260507174016 48 64 1.0 3.0 0.01 0.65 0.65 96 1016.2
20260507173015 48 67 1.0 3.0 0.01 0.65 0.65 96 1016.0
20260507172026 48 67 1.0 3.0 0.01 0.65 0.65 96 1015.9
20260507171016 49 73 1.0 2.0 0.01 0.65 0.65 96 1015.8
20260507170017 49 86 0.0 2.0 0.01 0.65 0.65 95 1015.9
20260507165016 49 75 1.0 3.0 0.01 0.65 0.65 95 1015.7
20260507164018 49 70 0.0 2.0 0.00 0.64 0.64 95 1015.6
20260507163032 49 95 0.0 2.0 0.00 0.64 0.64 95 1015.6
20260507162016 49 57 1.0 4.0 0.00 0.64 0.64 95 1015.4
20260507161015 49 90 1.0 3.0 0.00 0.64 0.64 95 1015.4
20260507160015 49 86 1.0 3.0 0.00 0.64 0.64 95 1015.5
20260507155015 49 82 1.0 3.0 0.00 0.64 0.64 95 1015.3
20260507154018 49 77 1.0 4.0 0.00 0.64 0.64 95 1015.3
20260507153018 49 64 2.0 6.0 0.00 0.64 0.64 95 1015.4
20260507152041 49 74 1.0 4.0 0.00 0.64 0.64 94 1015.2
20260507151047 50 80 1.0 3.0 0.00 0.64 0.64 94 1015.1
20260507150016 50 83 1.0 3.0 0.00 0.64 0.64 94 1015.0
20260507145025 50 83 1.0 3.0 0.00 0.64 0.64 93 1014.9
20260507144103 50 82 1.0 3.0 0.00 0.64 0.64 94 1014.9
20260507143016 50 79 1.0 3.0 0.00 0.64 0.64 94 1015.0
20260507142041 50 76 1.0 3.0 0.01 0.64 0.64 94 1014.9
20260507141036 50 78 1.0 3.0 0.02 0.64 0.64 94 1014.8
20260507140021 50 81 1.0 3.0 0.02 0.64 0.64 94 1014.7
20260507135035 50 97 1.0 3.0 0.02 0.64 0.64 94 1014.8
20260507134036 50 146 1.0 3.0 0.02 0.64 0.64 95 1014.7
20260507133027 50 103 1.0 3.0 0.03 0.64 0.64 95 1014.7
20260507132016 50 83 1.0 2.0 0.05 0.63 0.63 95 1014.7
20260507131016 50 71 1.0 3.0 0.06 0.62 0.62 95 1014.6
20260507130025 50 83 0.0 2.0 0.06 0.62 0.62 95 1014.5
20260507125015 50 69 1.0 3.0 0.06 0.62 0.62 95 1014.4
20260507124016 50 113 0.0 3.0 0.06 0.62 0.62 95 1014.3
20260507123025 50 64 1.0 3.0 0.05 0.61 0.61 94 1014.3
20260507122016 50 70 1.0 3.0 0.02 0.58 0.58 94 1014.2
20260507121015 51 81 2.0 4.0 0.00 0.56 0.56 92 1014.1
20260507120058 51 66 1.0 6.0 0.00 0.56 0.56 92 1014.0
20260507115016 51 60 1.0 3.0 0.00 0.56 0.56 91 1013.8
20260507114016 52 75 1.0 3.0 0.00 0.56 0.56 90 1013.9
20260507113016 52 66 1.0 4.0 0.00 0.56 0.56 91 1013.8
20260507112016 52 68 1.0 3.0 0.00 0.56 0.56 92 1013.8
20260507111036 51 60 1.0 3.0 0.00 0.56 0.56 92 1013.7
20260507110027 51 105 1.0 4.0 0.00 0.56 0.56 92 1013.7
20260507105016 51 75 1.0 3.0 0.00 0.56 0.56 92 1013.6
20260507104016 52 75 1.0 3.0 0.00 0.56 0.56 91 1013.6
20260507103040 52 85 1.0 4.0 0.00 0.56 0.56 91 1013.5
20260507102020 51 90 1.0 3.0 0.00 0.56 0.56 91 1013.5
20260507101025 51 76 1.0 3.0 0.00 0.56 0.56 92 1013.5
20260507100016 51 85 0.0 2.0 0.00 0.56 0.56 93 1013.5
20260507095023 51 78 0.0 2.0 0.00 0.56 0.56 93 1013.3
20260507094016 51 103 0.0 2.0 0.00 0.56 0.56 93 1013.2
20260507093016 51 81 0.0 3.0 0.00 0.56 0.56 94 1013.3
20260507092016 51 74 0.0 2.0 0.02 0.56 0.56 94 1013.1
20260507091016 51 74 1.0 2.0 0.06 0.56 0.56 94 1013.0
20260507090015 51 91 0.0 1.0 0.06 0.56 0.56 94 1012.8
20260507085037 51 63 0.0 3.0 0.06 0.56 0.56 95 1012.6
20260507084016 50 83 0.0 1.0 0.06 0.56 0.56 95 1012.5
20260507083027 50 81 0.0 2.0 0.06 0.56 0.56 95 1012.5
20260507082023 51 79 1.0 3.0 0.04 0.54 0.54 94 1012.4
20260507081016 51 75 0.0 2.0 0.00 0.50 0.50 93 1012.3
20260507080015 51 79 1.0 3.0 0.00 0.50 0.50 93 1012.0
20260507075027 51 72 0.0 2.0 0.00 0.50 0.50 92 1011.9
20260507074035 51 76 0.0 2.0 0.00 0.50 0.50 93 1011.8
20260507073016 51 75 1.0 3.0 0.00 0.50 0.50 93 1011.7
20260507072017 51 80 1.0 3.0 0.00 0.50 0.50 94 1011.7
20260507071022 51 56 2.0 3.0 0.00 0.50 0.50 93 1011.7
20260507070016 51 68 1.0 3.0 0.00 0.50 0.50 93 1011.6
20260507065016 51 87 0.0 2.0 0.00 0.50 0.50 94 1011.5
20260507064016 51 75 0.0 1.0 0.00 0.50 0.50 94 1011.3
20260507063015 51 78 1.0 2.0 0.00 0.50 0.50 95 1011.3
20260507062015 50 74 1.0 3.0 0.00 0.50 0.50 95 1011.2
20260507061016 50 73 0.0 2.0 0.00 0.50 0.50 95 1011.1
20260507060016 50 75 0.0 2.0 0.01 0.50 0.50 95 1011.1
20260507055106 50 73 0.0 1.0 0.01 0.50 0.50 95 1011.1
20260507054030 50 75 0.0 1.0 0.01 0.50 0.50 94 1010.9
20260507053040 50 100 0.0 1.0 0.01 0.50 0.50 94 1010.9
20260507052036 50 121 0.0 2.0 0.02 0.50 0.50 94 1010.7
20260507051036 50 105 0.0 1.0 0.05 0.50 0.50 94 1010.6
20260507050016 50 119 0.0 1.0 0.08 0.49 0.49 95 1010.5
20260507045015 50 109 0.0 1.0 0.11 0.49 0.49 95 1010.5
20260507044021 50 80 0.0 2.0 0.12 0.49 0.49 95 1010.4
20260507043042 49 107 0.0 1.0 0.12 0.49 0.49 95 1010.3
20260507042055 50 82 0.0 1.0 0.12 0.48 0.48 95 1010.3
20260507041047 50 84 0.0 1.0 0.09 0.45 0.45 95 1010.1
20260507040015 50 116 0.0 2.0 0.05 0.41 0.41 95 1010.1
20260507035018 50 72 0.0 2.0 0.02 0.38 0.38 95 1010.1
20260507034015 50 70 0.0 1.0 0.01 0.37 0.37 95 1010.2
20260507033015 50 79 1.0 3.0 0.01 0.37 0.37 94 1010.0
20260507032016 51 91 0.0 2.0 0.00 0.36 0.36 94 1009.9
20260507031036 51 114 0.0 2.0 0.00 0.36 0.36 94 1009.7
20260507030016 51 79 0.0 2.0 0.00 0.36 0.36 94 1009.7
20260507025016 51 69 1.0 2.0 0.01 0.36 0.36 94 1009.7
20260507024016 52 102 0.0 1.0 0.01 0.36 0.36 95 1009.8
20260507023025 52 76 0.0 2.0 0.02 0.36 0.36 95 1009.7
20260507022021 52 61 1.0 3.0 0.03 0.36 0.36 95 1009.7
20260507021016 52 57 1.0 2.0 0.05 0.36 0.36 95 1009.4
20260507020028 52 71 1.0 2.0 0.08 0.36 0.36 95 1009.4
20260507015016 53 59 1.0 2.0 0.13 0.35 0.35 95 1009.3
20260507014016 53 0.0 0.0 0.15 0.35 0.35 95 1009.3
20260507013048 53 80 0.0 1.0 0.20 0.34 0.34 95 1009.1
20260507012031 53 111 0.0 1.0 0.24 0.33 0.33 95 1008.9
20260507011021 54 110 0.0 1.0 0.28 0.31 0.31 94 1008.9
20260507010015 54 107 0.0 1.0 0.25 0.28 0.28 94 1008.9
20260507005028 54 0.0 0.0 0.19 0.22 0.22 94 1008.8
20260507004016 54 0.0 0.0 0.17 0.21 0.20 94 1008.7
20260507003015 54 86 0.0 1.0 0.12 0.15 0.14 94 1008.5
20260507002025 55 73 0.0 2.0 0.07 0.11 0.09 94 1008.5
20260507001016 54 78 0.0 1.0 0.01 0.06 0.03 93 1008.4
20260507000027 55 63 1.0 2.0 0.02 0.09 0.03 92 1008.3
20260506235016 55 0.0 0.0 0.02 0.13 0.03 92 1008.3
20260506234021 55 0.0 0.0 0.03 0.16 0.03 91 1008.2
20260506233019 55 105 0.0 1.0 0.02 0.17 0.02 91 1008.2
20260506232016 56 111 0.0 1.0 0.02 0.17 0.02 91 1008.0
20260506231033 56 112 0.0 1.0 0.02 0.18 0.02 89 1008.0
20260506230015 56 132 0.0 2.0 0.01 0.17 0.01 88 1008.1
20260506225028 57 108 0.0 1.0 0.01 0.17 0.01 87 1008.4
20260506224016 57 111 0.0 1.0 0.00 0.17 0.00 87 1008.5
20260506223015 57 79 0.0 1.0 0.00 0.18 0.00 85 1008.4
20260506222026 57 116 0.0 2.0 0.00 0.22 0.00 85 1008.3
20260506221015 57 77 0.0 2.0 0.00 0.22 0.00 84 1008.1
20260506220015 57 76 0.0 2.0 0.00 0.22 0.00 84 1008.0
20260506215015 57 78 0.0 1.0 0.00 0.22 0.22 85 1007.9
20260506214036 57 77 1.0 4.0 0.00 0.22 0.22 84 1007.7
20260506213056 57 114 0.0 2.0 0.00 0.22 0.22 84 1007.7
20260506212015 57 113 1.0 3.0 0.00 0.22 0.22 84 1007.5
20260506211015 57 121 1.0 3.0 0.00 0.22 0.22 84 1007.4
20260506210016 57 139 2.0 4.0 0.00 0.22 0.22 85 1007.6
20260506205016 58 139 1.0 4.0 0.00 0.22 0.22 87 1007.8
20260506204016 58 127 1.0 3.0 0.00 0.22 0.22 87 1007.6
20260506203022 58 150 2.0 4.0 0.00 0.22 0.22 86 1007.6
20260506202022 58 118 1.0 3.0 0.00 0.22 0.22 85 1007.5
20260506201036 59 152 1.0 3.0 0.00 0.22 0.22 83 1007.8
20260506200016 60 102 0.0 1.0 0.00 0.22 0.22 81 1007.8
20260506195025 60 82 1.0 3.0 0.00 0.22 0.22 79 1007.8
20260506194016 60 71 1.0 4.0 0.00 0.22 0.22 78 1007.8
20260506193016 61 111 1.0 3.0 0.00 0.22 0.22 78 1007.4